Weather History for Sioux Falls, SD

Change the Weather History Date:

Wednesday, January 30, 2013

  Actual Average Record
Temperature  
Mean Temperature 11 °F 18 °F  
Max Temperature 22 °F 28 °F 58 °F (1989)
Min Temperature -1 °F 8 °F -27 °F (1899)
Degree Days  
Heating Degree Days 54 47  
Month to date heating degree days 1397 1457  
Since 1 July heating degree days 4337 4590  
Cooling Degree Days 0 0  
Month to date cooling degree days 0 0  
Year to date cooling degree days 0 0  
Moisture  
Dew Point 7 °F    
Average Humidity 76    
Maximum Humidity 85    
Minimum Humidity 60    
Precipitation  
Precipitation T in 0.02 in 0.39 in (1929)
Month to date precipitation 0.41 0.54  
Year to date precipitation 0.41 0.54  
Snow  
Snow T in 0.20 in 4.50 in (1929)
Month to date snowfall 2.0 7.4  
Since 1 July snowfall 15.8 24.3  
Snow Depth 0.00 in    
Sea Level Pressure  
Sea Level Pressure 29.87 in    
Wind  
Wind Speed 19 mph (NNW)    
Max Wind Speed 29 mph    
Max Gust Speed 37 mph    
Visibility 9 miles    
Events Snow    
T = Trace of Precipitation, MM = Missing Value Source: NWS Daily Summary

Daily Weather History Graph

Daily Weather History Graph

Search for Another Location

Airport:

Trip Planner

Search our weather history database for the weather conditions in past years. The results will help you decide how hot, cold, wet, or windy it might be!

Date:

Astronomy

Jan. 30, 2013 Rise Set
Actual Time 7:45 AM CST 5:36 PM CST
Civil Twilight 7:14 AM CST 6:06 PM CST
Nautical Twilight 6:40 AM CST 6:41 PM CST
Astronomical Twilight 6:06 AM CST 7:14 PM CST
Moon 9:45 PM CST (1/30) 9:05 AM CST (1/30)
Length of Visible Light 10h 52m
Length of Day
9h 50m
Waning Gibbous, 87% of the Moon is Illuminated
Jan 30
Waning Gibbous
Feb 3
Last Quarter
Feb 10
New
Feb 17
First Quarter
Feb 25
Full

Hourly Weather History & Observations

Time (CST) Temp. Windchill Dew Point Humidity Pressure Visibility Wind Dir Wind Speed Gust Speed Precip Events Conditions
12:56 AM 21.9 °F 6.2 °F 18.0 °F 85% 29.83 in 10.0 mi North 21.9 mph 29.9 mph 0.00 in Snow Light Snow
1:56 AM 21.9 °F 7.3 °F 17.1 °F 82% 29.83 in 9.0 mi North 18.4 mph 25.3 mph 0.00 in Snow Light Snow
2:56 AM 21.0 °F 5.0 °F 14.0 °F 74% 29.83 in 9.0 mi North 21.9 mph 32.2 mph 0.00 in Snow Light Snow
3:56 AM 21.0 °F 7.6 °F 15.1 °F 78% 29.84 in 8.0 mi North 15.0 mph - 0.00 in Snow Light Snow
4:29 AM 21.2 °F 6.4 °F 15.8 °F 80% 29.80 in 9.0 mi North 18.4 mph 27.6 mph 0.00 in Snow Light Snow
4:35 AM 21.2 °F 6.4 °F 15.8 °F 80% 29.80 in 9.0 mi North 18.4 mph - 0.00 in Snow Light Snow
4:41 AM 21.2 °F 7.3 °F 15.8 °F 80% 29.80 in 9.0 mi North 16.1 mph 24.2 mph 0.00 in Snow Light Snow
4:56 AM 19.9 °F 3.9 °F 14.0 °F 78% 29.86 in 9.0 mi NNW 20.7 mph 28.8 mph 0.00 in Snow Light Snow
5:11 AM 19.4 °F 2.5 °F 14.0 °F 80% 29.81 in 9.0 mi North 23.0 mph 29.9 mph 0.00 in Snow Light Snow
5:25 AM 19.4 °F 5.0 °F 12.2 °F 74% 29.80 in 9.0 mi NNW 16.1 mph 24.2 mph 0.00 in Snow Light Snow
5:44 AM 19.4 °F 3.6 °F 12.2 °F 74% 29.80 in 9.0 mi NNW 19.6 mph 27.6 mph 0.00 in Snow Light Snow
5:50 AM 17.6 °F 1.7 °F 12.2 °F 79% 29.79 in 9.0 mi NNW 18.4 mph 28.8 mph 0.00 in Snow Light Snow
5:56 AM 18.0 °F 0.9 °F 12.0 °F 78% 29.86 in 9.0 mi NNW 21.9 mph 28.8 mph 0.00 in Snow Light Snow
6:46 AM 17.6 °F 0.9 °F 12.2 °F 79% 29.80 in 6.0 mi NNW 20.7 mph 25.3 mph 0.00 in Snow Light Snow
6:56 AM 17.1 °F 2.5 °F 10.9 °F 77% 29.87 in 9.0 mi NNW 15.0 mph 31.1 mph 0.00 in Snow Light Snow
7:15 AM 17.6 °F 1.3 °F 10.4 °F 73% 29.81 in 9.0 mi NNW 19.6 mph 27.6 mph 0.00 in Snow Light Snow
7:56 AM 17.1 °F -0.3 °F 10.0 °F 74% 29.89 in 9.0 mi NNW 21.9 mph 33.4 mph 0.00 in Snow Light Snow
8:45 AM 17.6 °F 1.7 °F 10.4 °F 73% 29.82 in 7.0 mi NNW 18.4 mph 28.8 mph 0.00 in Snow Light Snow
8:56 AM 17.1 °F -0.6 °F 10.9 °F 77% 29.89 in 3.0 mi NW 23.0 mph 29.9 mph 0.00 in Snow Light Snow
9:27 AM 15.8 °F -2.7 °F 8.6 °F 73% 29.81 in 5.0 mi NNW 24.2 mph 34.5 mph 0.00 in Snow Light Snow
9:56 AM 15.1 °F -4.0 °F 9.0 °F 77% 29.89 in 9.0 mi NW 25.3 mph 31.1 mph 0.00 in Snow Light Snow
10:56 AM 15.1 °F -2.9 °F 8.1 °F 74% 29.90 in 9.0 mi NNW 21.9 mph 26.5 mph 0.00 in Snow Light Snow
11:56 AM 14.0 °F -3.4 °F 8.1 °F 77% 29.91 in 9.0 mi NW 19.6 mph 25.3 mph 0.00 in Snow Light Snow
12:56 PM 15.1 °F -2.0 °F 8.1 °F 74% 29.89 in 9.0 mi NNW 19.6 mph - 0.00 in Snow Light Snow
1:31 PM 15.8 °F 0.3 °F 8.6 °F 73% 29.81 in 9.0 mi NW 16.1 mph - 0.00 in   Overcast
1:56 PM 15.1 °F -0.6 °F 8.1 °F 74% 29.88 in 9.0 mi NW 16.1 mph - 0.00 in Snow Light Snow
2:45 PM 12.2 °F -6.7 °F 6.8 °F 79% 29.80 in 9.0 mi NW 21.9 mph - 0.00 in Snow Light Snow
2:56 PM 12.9 °F -3.9 °F 7.0 °F 77% 29.88 in 9.0 mi NW 17.3 mph 27.6 mph 0.00 in   Overcast
3:56 PM 14.0 °F -3.4 °F 6.1 °F 71% 29.88 in 10.0 mi NW 19.6 mph 26.5 mph N/A   Mostly Cloudy
4:56 PM 10.0 °F -9.1 °F 3.9 °F 76% 29.90 in 10.0 mi NW 20.7 mph 24.2 mph N/A   Scattered Clouds
5:56 PM 8.1 °F -7.7 °F 1.9 °F 76% 29.92 in 10.0 mi WNW 12.7 mph 19.6 mph N/A   Scattered Clouds
6:56 PM 6.1 °F -11.6 °F 1.0 °F 80% 29.94 in 10.0 mi NW 15.0 mph 21.9 mph N/A   Scattered Clouds
7:51 PM 5.0 °F -11.6 °F -0.4 °F 78% 29.85 in 10.0 mi NW 12.7 mph 21.9 mph N/A   Mostly Cloudy
7:56 PM 5.0 °F -14.2 °F -0.0 °F 80% 29.94 in 10.0 mi NW 17.3 mph - N/A   Mostly Cloudy
8:23 PM 3.2 °F -18.1 °F -0.4 °F 85% 29.85 in 10.0 mi NW 20.7 mph 25.3 mph N/A   Overcast
8:52 PM 3.2 °F -14.6 °F -2.2 °F 78% 29.85 in 10.0 mi NW 13.8 mph - N/A   Scattered Clouds
8:56 PM 3.0 °F -14.8 °F -2.0 °F 80% 29.94 in 10.0 mi WNW 13.8 mph - N/A   Scattered Clouds
9:28 PM 3.2 °F -15.3 °F -2.2 °F 78% 29.86 in 10.0 mi NW 15.0 mph - N/A   Mostly Cloudy
9:56 PM 1.9 °F -18.1 °F -2.9 °F 80% 29.97 in 10.0 mi NW 17.3 mph - N/A   Mostly Cloudy
10:41 PM 1.4 °F -18.8 °F -5.8 °F 72% 29.88 in 10.0 mi NW 17.3 mph - N/A   Scattered Clouds
10:56 PM 1.0 °F -18.7 °F -6.0 °F 72% 29.98 in 10.0 mi NW 16.1 mph - N/A   Partly Cloudy
11:56 PM -0.9 °F -21.9 °F -8.0 °F 72% 29.99 in 10.0 mi NW 17.3 mph 23.0 mph N/A   Clear